HELLAS-SAT 3 (42814 NORAD) Tracking and Keplerian Element Data

This shows tracking and keplerian element data for the satellite.

Feedback or suggestion? Click here.




ElementValue
Catalog42814
NameHELLAS-SAT 3
Epoch Orbit394
Epoch Day202.06181259
Epoch Year2018
RAAN32.1971
Inclination0.0576
Eccentricity0.0003328
Argument of Perigee40.5909
Mean Anonmoly287.232
Mean Motion1.00269545
Decay Rate1.37E-06
L11 42814U 17040A 18202.06181259 .00000137 00000-0 00000-0 0 9997
L22 42814 0.0576 32.1971 0003328 40.5909 287.2320 1.00269545 3947

Live tracking and technical data element details for HELLAS-SAT 3 (NORAD 42814). HELLAS-SAT 3 can be tracked NOW for your location showing map with azimuth and elevation plus other details from your city location.

Track the satellite on the map from your city or location and see movement details for azimuth, elevation, latitude, longitude, range, height, and movement on the map or in text.







IsCatalogInMostPopularTable: catalog: 42814, numindb: 67
Update: records affected: 1



GetName: 42814 HELLAS-SAT 3

Hit Count: updated at: Mon, 23 Jul 2018 07:32:57 GMT